(°C)
(°C)
-2°
-1°
-0°
სდ
სდ
სდ
სდ
სდ
სდ
დსდ
(კმ/სთ)
30-59
29-57
29-56
28-56
27-56
25-55
23-55
(მმ)
0
0
0.6
0
0
0
0
(%)
70
61
98
61
49
49
48

მზის სიმაღლე

/ 14.6°
sun-icon
UV 0
08:01
17:58
კლებადი მთვარე (222°)
19:17
12:07

METAR 55.27°ჩრ. 86.11°აღმ. (UNEE)-თვის

დრო პირობები ტემპერატურა/
ნამი
ქარი ხილვადობა ამინდი ღრუბლები წნევა ცვლილება დაუმუშავებელი
MVFR 6°C / 3°C 200º 17kt >10km - Broken Clouds 1300ft 1015 No Significant change. Runway 23: Wet or puddles, 51-100% contamination with 1mm, friction coefficient 0.55. UNEE 240300Z 20009MPS 9999 BKN013CB 06/03 Q1015 R23/290155 NOSIG RMK QFE739
MVFR 5°C / 3°C 200º 17kt Gust 27kt >10km - Broken Clouds 1600ft 1015 No Significant change. Runway 23: Wet or puddles, 51-100% contamination with 1mm, friction coefficient 0.55. UNEE 240230Z 20009G14MPS 9999 BKN016CB 05/03 Q1015 R23/290155 NOSIG RMK QFE738
MVFR 5°C / 3°C 200º 17kt >10km Light Showers Rain 3.00mm precipitation Vertical Visibility of 0ft. 1016 No Significant change. Runway 23: Wet or puddles, 51-100% contamination with 1mm, friction coefficient 0.55. UNEE 240200Z 20009MPS 9999 -SHRA BKN015CB 05/03 Q1016 R23/290155 NOSIG RMK QFE739
MVFR 6°C / 3°C 210º 17kt Gust 27kt >10km - Broken Clouds 1500ft 1016 No Significant change. Runway 23: Wet or puddles, 51-100% contamination with 1mm, friction coefficient 0.55. UNEE 240130Z 21009G14MPS 9999 BKN015CB 06/03 Q1016 R23/290155 NOSIG RMK QFE739
MVFR 6°C / 3°C 210º 19kt >10km - Broken Clouds 1500ft 1015 No Significant change. Runway 23: Wet or puddles, 51-100% contamination with 1mm, friction coefficient 0.55. UNEE 240100Z 21010MPS 9999 BKN015CB 06/03 Q1015 R23/290155 NOSIG RMK QFE739
MVFR 5°C / 4°C 210º 17kt Gust 27kt. Wind Shear present on Runway 23. >10km - Broken Clouds 1200ft
Overcast 2600ft
1015 No Significant change. Runway 23: Wet or puddles, 51-100% contamination with 1mm, friction coefficient 0.55. UNEE 240030Z 21009G14MPS 9999 BKN012 OVC026CB 05/04 Q1015 WS R23 R23/290155 NOSIG RMK QFE738
MVFR 5°C / 4°C 210º 17kt. Wind Shear present on Runway 23. >10km - Broken Clouds 1200ft
Overcast 2600ft
1015 No Significant change. Runway 23: Wet or puddles, 51-100% contamination with 1mm, friction coefficient 0.55. UNEE 240000Z 21009MPS 9999 BKN012 OVC026CB 05/04 Q1015 WS R23 R23/290155 NOSIG RMK QFE738
MVFR 5°C / 3°C 210º 17kt Gust 27kt. Wind Shear present on Runway 23. >10km - Broken Clouds 1200ft
Overcast 2600ft
1015 No Significant change. Runway 23: Wet or puddles, 51-100% contamination with 1mm, friction coefficient 0.55. UNEE 232330Z 21009G14MPS 9999 BKN012 OVC026CB 05/03 Q1015 WS R23 R23/290155 NOSIG RMK QFE738
MVFR 5°C / 4°C 210º 17kt Gust 29kt 9000m - Broken Clouds 1400ft
Overcast 2600ft
1015 No Significant change. Runway 23: Wet or puddles, 51-100% contamination with 1mm, friction coefficient 0.55. UNEE 232300Z 21009G15MPS 9000 BKN014 OVC026CB 05/04 Q1015 R23/290155 NOSIG RMK QFE738
MVFR 5°C / 4°C 210º 17kt >10km Light Showers Rain 3.00mm precipitation Vertical Visibility of 0ft.
Overcast 2600ft
1015 No Significant change. Runway 23: Wet or puddles, 51-100% contamination with 1mm, friction coefficient 0.55. UNEE 232230Z 21009MPS 9999 -SHRA BKN010 OVC026CB 05/04 Q1015 R23/290155 NOSIG RMK QFE738
IFR 5°C / 4°C 210º 16kt Gust 27kt >10km Light Showers Rain 3.00mm precipitation Vertical Visibility of 0ft.
Overcast 2600ft
1015 No Significant change. Runway 23: Wet or puddles, 51-100% contamination with 1mm, friction coefficient 0.55. UNEE 232200Z 21008G14MPS 9999 -SHRA BKN009 OVC026CB 05/04 Q1015 R23/290155 NOSIG RMK QFE738
MVFR 5°C / 4°C 210º 17kt >10km Light Showers Rain 3.00mm precipitation Vertical Visibility of 0ft.
Overcast 2600ft
1015 No Significant change. Runway 23: Wet or puddles, 51-100% contamination with 1mm, friction coefficient 0.55. UNEE 232130Z 21009MPS 9999 -SHRA BKN010 OVC026CB 05/04 Q1015 R23/290155 NOSIG RMK QFE738
MVFR 5°C / 4°C 210º 17kt 9000m Light Showers Rain 3.00mm precipitation Vertical Visibility of 0ft.
Overcast 2600ft
1015 No Significant change. Runway 23: Wet or puddles, 51-100% contamination with 1mm, friction coefficient 0.55. UNEE 232100Z 21009MPS 9000 -SHRA BKN011 OVC026CB 05/04 Q1015 R23/290155 NOSIG RMK QFE738
MVFR 5°C / 3°C 210º 16kt Gust 27kt >10km - Overcast 1300ft 1015 No Significant change. Runway 23: Wet or puddles, 51-100% contamination with 1mm, friction coefficient 0.55. UNEE 232030Z 21008G14MPS 9999 OVC013 05/03 Q1015 R23/290155 NOSIG RMK QFE738
MVFR 5°C / 3°C 210º 16kt >10km - Overcast 1300ft 1015 No Significant change. Runway 23: Wet or puddles, 51-100% contamination with 1mm, friction coefficient 0.55. UNEE 232000Z 21008MPS 9999 OVC013 05/03 Q1015 R23/290155 NOSIG RMK QFE738
MVFR 5°C / 3°C 210º 16kt Gust 25kt >10km - Overcast 1200ft 1015 No Significant change. Runway 23: Wet or puddles, 51-100% contamination with 1mm, friction coefficient 0.55. UNEE 231930Z 21008G13MPS 9999 OVC012 05/03 Q1015 R23/290155 NOSIG RMK QFE738
MVFR 5°C / 3°C 200º 16kt >10km - Overcast 1300ft 1015 No Significant change. Runway 23: Wet or puddles, 51-100% contamination with 1mm, friction coefficient 0.55. UNEE 231900Z 20008MPS 9999 OVC013 05/03 Q1015 R23/290155 NOSIG RMK QFE738
MVFR 4°C / 3°C 200º 14kt 9000m Light Rain 1.00mm precipitation Vertical Visibility of 0ft. 1015 No Significant change. Runway 23: Wet or puddles, 51-100% contamination with 1mm, friction coefficient 0.55. UNEE 231830Z 20007MPS 9000 -RA OVC012 04/03 Q1015 R23/290155 NOSIG RMK QFE738
IFR 4°C / 3°C 200º 14kt 6000m Light Rain 1.00mm precipitation Vertical Visibility of 0ft. 1015 No Significant change. Runway 23: Wet or puddles, 51-100% contamination with 1mm, friction coefficient 0.55. UNEE 231800Z 20007MPS 6000 -RA OVC009 04/03 Q1015 R23/290155 NOSIG RMK QFE738
IFR 4°C / 3°C 200º 14kt 4100m Light Rain 1.00mm precipitation Vertical Visibility of 0ft. 1015 No Significant change. Runway 23: Wet or puddles, 51-100% contamination with 1mm, friction coefficient 0.55. UNEE 231730Z 20007MPS 4100 -RA OVC007 04/03 Q1015 R23/290155 NOSIG RMK QFE738
IFR 3°C / 3°C 190º 14kt 7000m Light Rain 1.00mm precipitation Vertical Visibility of 0ft. 1015 No Significant change. Runway 23: Wet or puddles, 51-100% contamination with 1mm, friction coefficient 0.55. UNEE 231700Z 19007MPS 7000 -RA OVC007 03/03 Q1015 R23/290155 NOSIG RMK QFE738
MVFR 3°C / 2°C 190º 14kt 9000m Light Rain 1.00mm precipitation Vertical Visibility of 0ft. 1015 No Significant change. Runway 23: Wet or puddles, 51-100% contamination with 1mm, friction coefficient 0.55. UNEE 231630Z 19007MPS 9000 -RA OVC010 03/02 Q1015 R23/290155 NOSIG RMK QFE739
MVFR 3°C / 2°C 190º 14kt >10km Light Rain 1.00mm precipitation Vertical Visibility of 0ft. 1016 No Significant change. Runway 23: Wet or puddles, 51-100% contamination with 1mm, friction coefficient 0.55. UNEE 231600Z 19007MPS 9999 -RA OVC011 03/02 Q1016 R23/290155 NOSIG RMK QFE739
MVFR 3°C / 2°C 180º 14kt >10km Light Rain 1.00mm precipitation Vertical Visibility of 0ft. 1016 No Significant change. Runway 23: Wet or puddles, 51-100% contamination with 1mm, friction coefficient 0.55. UNEE 231530Z 18007MPS 9999 -RA OVC010 03/02 Q1016 R23/290155 NOSIG RMK QFE739

MVFR

6°C / 3°C

[მეტი]
ქარი 200º 17kt
ხილვადობა >10km
ამინდი -
ღრუბლები Broken Clouds 1300ft
წნევა 1015
ცვლილება No Significant change. Runway 23: Wet or puddles, 51-100% contamination with 1mm, friction coefficient 0.55.
დაუმუშავებელი UNEE 240300Z 20009MPS 9999 BKN013CB 06/03 Q1015 R23/290155 NOSIG RMK QFE739

MVFR

5°C / 3°C

[მეტი]
ქარი 200º 17kt Gust 27kt
ხილვადობა >10km
ამინდი -
ღრუბლები Broken Clouds 1600ft
წნევა 1015
ცვლილება No Significant change. Runway 23: Wet or puddles, 51-100% contamination with 1mm, friction coefficient 0.55.
დაუმუშავებელი UNEE 240230Z 20009G14MPS 9999 BKN016CB 05/03 Q1015 R23/290155 NOSIG RMK QFE738

MVFR

5°C / 3°C

[მეტი]
ქარი 200º 17kt
ხილვადობა >10km
ამინდი Light Showers Rain 3.00mm precipitation
ღრუბლები Vertical Visibility of 0ft.
წნევა 1016
ცვლილება No Significant change. Runway 23: Wet or puddles, 51-100% contamination with 1mm, friction coefficient 0.55.
დაუმუშავებელი UNEE 240200Z 20009MPS 9999 -SHRA BKN015CB 05/03 Q1016 R23/290155 NOSIG RMK QFE739

MVFR

6°C / 3°C

[მეტი]
ქარი 210º 17kt Gust 27kt
ხილვადობა >10km
ამინდი -
ღრუბლები Broken Clouds 1500ft
წნევა 1016
ცვლილება No Significant change. Runway 23: Wet or puddles, 51-100% contamination with 1mm, friction coefficient 0.55.
დაუმუშავებელი UNEE 240130Z 21009G14MPS 9999 BKN015CB 06/03 Q1016 R23/290155 NOSIG RMK QFE739

MVFR

6°C / 3°C

[მეტი]
ქარი 210º 19kt
ხილვადობა >10km
ამინდი -
ღრუბლები Broken Clouds 1500ft
წნევა 1015
ცვლილება No Significant change. Runway 23: Wet or puddles, 51-100% contamination with 1mm, friction coefficient 0.55.
დაუმუშავებელი UNEE 240100Z 21010MPS 9999 BKN015CB 06/03 Q1015 R23/290155 NOSIG RMK QFE739

MVFR

5°C / 4°C

[მეტი]
ქარი 210º 17kt Gust 27kt. Wind Shear present on Runway 23.
ხილვადობა >10km
ამინდი -
ღრუბლები Broken Clouds 1200ft
Overcast 2600ft
წნევა 1015
ცვლილება No Significant change. Runway 23: Wet or puddles, 51-100% contamination with 1mm, friction coefficient 0.55.
დაუმუშავებელი UNEE 240030Z 21009G14MPS 9999 BKN012 OVC026CB 05/04 Q1015 WS R23 R23/290155 NOSIG RMK QFE738

MVFR

5°C / 4°C

[მეტი]
ქარი 210º 17kt. Wind Shear present on Runway 23.
ხილვადობა >10km
ამინდი -
ღრუბლები Broken Clouds 1200ft
Overcast 2600ft
წნევა 1015
ცვლილება No Significant change. Runway 23: Wet or puddles, 51-100% contamination with 1mm, friction coefficient 0.55.
დაუმუშავებელი UNEE 240000Z 21009MPS 9999 BKN012 OVC026CB 05/04 Q1015 WS R23 R23/290155 NOSIG RMK QFE738

MVFR

5°C / 3°C

[მეტი]
ქარი 210º 17kt Gust 27kt. Wind Shear present on Runway 23.
ხილვადობა >10km
ამინდი -
ღრუბლები Broken Clouds 1200ft
Overcast 2600ft
წნევა 1015
ცვლილება No Significant change. Runway 23: Wet or puddles, 51-100% contamination with 1mm, friction coefficient 0.55.
დაუმუშავებელი UNEE 232330Z 21009G14MPS 9999 BKN012 OVC026CB 05/03 Q1015 WS R23 R23/290155 NOSIG RMK QFE738

MVFR

5°C / 4°C

[მეტი]
ქარი 210º 17kt Gust 29kt
ხილვადობა 9000m
ამინდი -
ღრუბლები Broken Clouds 1400ft
Overcast 2600ft
წნევა 1015
ცვლილება No Significant change. Runway 23: Wet or puddles, 51-100% contamination with 1mm, friction coefficient 0.55.
დაუმუშავებელი UNEE 232300Z 21009G15MPS 9000 BKN014 OVC026CB 05/04 Q1015 R23/290155 NOSIG RMK QFE738

MVFR

5°C / 4°C

[მეტი]
ქარი 210º 17kt
ხილვადობა >10km
ამინდი Light Showers Rain 3.00mm precipitation
ღრუბლები Vertical Visibility of 0ft.
Overcast 2600ft
წნევა 1015
ცვლილება No Significant change. Runway 23: Wet or puddles, 51-100% contamination with 1mm, friction coefficient 0.55.
დაუმუშავებელი UNEE 232230Z 21009MPS 9999 -SHRA BKN010 OVC026CB 05/04 Q1015 R23/290155 NOSIG RMK QFE738

IFR

5°C / 4°C

[მეტი]
ქარი 210º 16kt Gust 27kt
ხილვადობა >10km
ამინდი Light Showers Rain 3.00mm precipitation
ღრუბლები Vertical Visibility of 0ft.
Overcast 2600ft
წნევა 1015
ცვლილება No Significant change. Runway 23: Wet or puddles, 51-100% contamination with 1mm, friction coefficient 0.55.
დაუმუშავებელი UNEE 232200Z 21008G14MPS 9999 -SHRA BKN009 OVC026CB 05/04 Q1015 R23/290155 NOSIG RMK QFE738

MVFR

5°C / 4°C

[მეტი]
ქარი 210º 17kt
ხილვადობა >10km
ამინდი Light Showers Rain 3.00mm precipitation
ღრუბლები Vertical Visibility of 0ft.
Overcast 2600ft
წნევა 1015
ცვლილება No Significant change. Runway 23: Wet or puddles, 51-100% contamination with 1mm, friction coefficient 0.55.
დაუმუშავებელი UNEE 232130Z 21009MPS 9999 -SHRA BKN010 OVC026CB 05/04 Q1015 R23/290155 NOSIG RMK QFE738

MVFR

5°C / 4°C

[მეტი]
ქარი 210º 17kt
ხილვადობა 9000m
ამინდი Light Showers Rain 3.00mm precipitation
ღრუბლები Vertical Visibility of 0ft.
Overcast 2600ft
წნევა 1015
ცვლილება No Significant change. Runway 23: Wet or puddles, 51-100% contamination with 1mm, friction coefficient 0.55.
დაუმუშავებელი UNEE 232100Z 21009MPS 9000 -SHRA BKN011 OVC026CB 05/04 Q1015 R23/290155 NOSIG RMK QFE738

MVFR

5°C / 3°C

[მეტი]
ქარი 210º 16kt Gust 27kt
ხილვადობა >10km
ამინდი -
ღრუბლები Overcast 1300ft
წნევა 1015
ცვლილება No Significant change. Runway 23: Wet or puddles, 51-100% contamination with 1mm, friction coefficient 0.55.
დაუმუშავებელი UNEE 232030Z 21008G14MPS 9999 OVC013 05/03 Q1015 R23/290155 NOSIG RMK QFE738

MVFR

5°C / 3°C

[მეტი]
ქარი 210º 16kt
ხილვადობა >10km
ამინდი -
ღრუბლები Overcast 1300ft
წნევა 1015
ცვლილება No Significant change. Runway 23: Wet or puddles, 51-100% contamination with 1mm, friction coefficient 0.55.
დაუმუშავებელი UNEE 232000Z 21008MPS 9999 OVC013 05/03 Q1015 R23/290155 NOSIG RMK QFE738

MVFR

5°C / 3°C

[მეტი]
ქარი 210º 16kt Gust 25kt
ხილვადობა >10km
ამინდი -
ღრუბლები Overcast 1200ft
წნევა 1015
ცვლილება No Significant change. Runway 23: Wet or puddles, 51-100% contamination with 1mm, friction coefficient 0.55.
დაუმუშავებელი UNEE 231930Z 21008G13MPS 9999 OVC012 05/03 Q1015 R23/290155 NOSIG RMK QFE738

MVFR

5°C / 3°C

[მეტი]
ქარი 200º 16kt
ხილვადობა >10km
ამინდი -
ღრუბლები Overcast 1300ft
წნევა 1015
ცვლილება No Significant change. Runway 23: Wet or puddles, 51-100% contamination with 1mm, friction coefficient 0.55.
დაუმუშავებელი UNEE 231900Z 20008MPS 9999 OVC013 05/03 Q1015 R23/290155 NOSIG RMK QFE738

MVFR

4°C / 3°C

[მეტი]
ქარი 200º 14kt
ხილვადობა 9000m
ამინდი Light Rain 1.00mm precipitation
ღრუბლები Vertical Visibility of 0ft.
წნევა 1015
ცვლილება No Significant change. Runway 23: Wet or puddles, 51-100% contamination with 1mm, friction coefficient 0.55.
დაუმუშავებელი UNEE 231830Z 20007MPS 9000 -RA OVC012 04/03 Q1015 R23/290155 NOSIG RMK QFE738

IFR

4°C / 3°C

[მეტი]
ქარი 200º 14kt
ხილვადობა 6000m
ამინდი Light Rain 1.00mm precipitation
ღრუბლები Vertical Visibility of 0ft.
წნევა 1015
ცვლილება No Significant change. Runway 23: Wet or puddles, 51-100% contamination with 1mm, friction coefficient 0.55.
დაუმუშავებელი UNEE 231800Z 20007MPS 6000 -RA OVC009 04/03 Q1015 R23/290155 NOSIG RMK QFE738

IFR

4°C / 3°C

[მეტი]
ქარი 200º 14kt
ხილვადობა 4100m
ამინდი Light Rain 1.00mm precipitation
ღრუბლები Vertical Visibility of 0ft.
წნევა 1015
ცვლილება No Significant change. Runway 23: Wet or puddles, 51-100% contamination with 1mm, friction coefficient 0.55.
დაუმუშავებელი UNEE 231730Z 20007MPS 4100 -RA OVC007 04/03 Q1015 R23/290155 NOSIG RMK QFE738

IFR

3°C / 3°C

[მეტი]
ქარი 190º 14kt
ხილვადობა 7000m
ამინდი Light Rain 1.00mm precipitation
ღრუბლები Vertical Visibility of 0ft.
წნევა 1015
ცვლილება No Significant change. Runway 23: Wet or puddles, 51-100% contamination with 1mm, friction coefficient 0.55.
დაუმუშავებელი UNEE 231700Z 19007MPS 7000 -RA OVC007 03/03 Q1015 R23/290155 NOSIG RMK QFE738

MVFR

3°C / 2°C

[მეტი]
ქარი 190º 14kt
ხილვადობა 9000m
ამინდი Light Rain 1.00mm precipitation
ღრუბლები Vertical Visibility of 0ft.
წნევა 1015
ცვლილება No Significant change. Runway 23: Wet or puddles, 51-100% contamination with 1mm, friction coefficient 0.55.
დაუმუშავებელი UNEE 231630Z 19007MPS 9000 -RA OVC010 03/02 Q1015 R23/290155 NOSIG RMK QFE739

MVFR

3°C / 2°C

[მეტი]
ქარი 190º 14kt
ხილვადობა >10km
ამინდი Light Rain 1.00mm precipitation
ღრუბლები Vertical Visibility of 0ft.
წნევა 1016
ცვლილება No Significant change. Runway 23: Wet or puddles, 51-100% contamination with 1mm, friction coefficient 0.55.
დაუმუშავებელი UNEE 231600Z 19007MPS 9999 -RA OVC011 03/02 Q1016 R23/290155 NOSIG RMK QFE739

MVFR

3°C / 2°C

[მეტი]
ქარი 180º 14kt
ხილვადობა >10km
ამინდი Light Rain 1.00mm precipitation
ღრუბლები Vertical Visibility of 0ft.
წნევა 1016
ცვლილება No Significant change. Runway 23: Wet or puddles, 51-100% contamination with 1mm, friction coefficient 0.55.
დაუმუშავებელი UNEE 231530Z 18007MPS 9999 -RA OVC010 03/02 Q1016 R23/290155 NOSIG RMK QFE739

TAF 55.27°ჩრ. 86.11°აღმ. (UNEE)-თვის

From till


From till Wind 200º 16kt. Gust 35kt. Visibility 8000m. Light Showers Rain . Broken Clouds 2500ft.
Temporarly from till Wind 240º 25kt. Gust 45kt. Broken Clouds 1100ft.
Becoming from till Wind 190º 8kt. Gust 17kt. Visibility 8000m. Light Showers Rain . Broken Clouds 3300ft.

დაუმუშავებელი: TAF UNEE 240200Z 2403/2503 20008G18MPS 8000 -SHRA BKN025CB TEMPO 2403/2412 24013G23MPS BKN011CB BECMG 2412/2415 19004G09MPS BKN033CB

მიმდინარე სატელიტისა და წვიმის სურათები 55.27°ჩრ. 86.11°აღმ.-თვის

ლოკაციის მარკერი დაყენებყლია 55.27°ჩრ. 86.11°აღმ.ზე. [მეტი]

რეალურ დროში სატელიტური სურათი აერთიანებს ხილულ სინათლეს დღისით ღამის განმავლობაში ინფრაწითელ გამოსხივებასთან ერთად. ღამით, სურათი არ არის მუქი, რადგან ინფრაწითელ გამოსხივებას შეუძლია ტემპერატურის განსხვავებების დადგენა. სამწუხაროდ, დაბალი ღრუბლები და ნისლი ძნელია განასხვავონ მიწის ტემპერატურისგან და, შესაბამისად, ისინი შეიძლება თითქმის არ ჩანდეს ღამით. Meteosat სატელიტური გამოსახულება ევროპისთვის ახლდება რეალურ დროში ყოველ 5 წუთში. GOES-16/GOES-17 (ჩრდილოეთი და სამხრეთ ამერიკა) და ჰიმავარი (აზია) გამოსახულებები ახლდება ყოველ 10 წუთში.

საავტორო უფლებები 2021 EUMETSAT / meteoblue. / საავტორო უფლებები 2021 meteoblue

რადარის და ნალექების მაჩვენებელი 55.27°ჩრ. 86.11°აღმ. -თვის

გაწურეთ
Მსუბუქი
ზომიერი
Მძიმე
Ძალიან მძიმე
სეტყვა

მდებარეობის მარკერი მოთავსებულია 55.27°ჩრ. 86.11°აღმ. -ზე. ეს ანიმაცია აჩვენებს ნალექების სარადარო მონაცემებს როგორც ბოლო საათის განმავლობაში, ასევე 1h პროგნოზს. წვიმა ან თოვლის მსუბუქი ვარდნა შეიძლება უჩინარი იყოს რადარისთვის. ნალექების ინტენსივობა არის კოდირებული ფერით, დაწყებული ღია ლურჯიდან ნარინჯისფერამდე.